Location: Rumah Dana
(3.1167°N, 113.0167°E)
Time: 13:19:55
(UTC+00:00)

Cosmos 1939 Rocket - Pass Details

Date: 03 August 2024
Orbit: 511 x 553 km, 97.5° (Epoch: 07 September)

Event Time Altitude Azimuth Distance (km) Brightness Sun altitude
Rises 20:29:09 0° 18° (NNE) 2,634 6.8 -28.6°
Reaches altitude 10° 20:31:16 10° 23° (NNE) 1,755 5.9 -28.1°
Enters shadow 20:33:51 38° 46° (NE) 811 4.0 -27.5°
